#timestamp,LO_Frequency,Hit,Temp,Hum 
1479790815.0,286047006.8,N,0.0,0.0
1479790816.0,286047006.8,N,0.0,0.0
1479790835.8,286047007.0,N,0.0,0.0
1479790855.6,286047006.5,N,0.0,0.0
1479790875.5,286047006.8,N,0.0,0.0
1479790895.3,286047006.4,N,0.0,0.0
1479790915.1,286047006.3,N,0.0,0.0
1479790935.9,286047006.8,N,0.0,0.0
1479790955.7,286047007.4,N,0.0,0.0
1479790975.6,286047004.6,N,0.0,0.0
1479790995.4,286047005.3,N,0.0,0.0
1479791015.2,286047005.0,N,0.0,0.0
1479791035.1,286047005.5,N,0.0,0.0
1479791036.0,286047005.5,N,0.0,0.0
1479791055.8,286047005.3,N,0.0,0.0
1479791075.6,286047005.7,N,0.0,0.0
1479791095.5,286047006.0,N,0.0,0.0
1479791115.3,286047003.4,N,0.0,0.0
1479791135.2,286047003.1,N,0.0,0.0
1479791155.9,286047003.0,N,0.0,0.0
1479791175.7,286047005.5,N,0.0,0.0
1479791195.6,286047003.4,N,0.0,0.0
1479791215.4,286047005.6,N,0.0,0.0
1479791235.2,286047002.9,N,0.0,0.0
1479791255.1,286047005.9,N,0.0,0.0
1479791256.0,286047005.9,N,0.0,0.0
1479791275.8,286047003.6,N,0.0,0.0
1479791295.7,286047003.7,N,0.0,0.0
1479791315.5,286047004.1,N,0.0,0.0
1479791335.3,286047003.5,N,0.0,0.0
1479791355.2,286047004.3,N,0.0,0.0
1479791375.0,286047003.9,N,0.0,0.0
1479791375.9,286047003.9,N,0.0,0.0
1479791395.8,286047001.7,N,0.0,0.0
1479791415.6,286047004.0,N,0.0,0.0
1479791435.4,286047001.9,N,0.0,0.0
1479791455.3,286047002.4,N,0.0,0.0
1479791475.1,286047000.0,N,0.0,0.0
1479791495.8,286047000.2,N,0.0,0.0
1479791515.7,286047000.3,N,0.0,0.0
1479791535.5,286047000.6,N,0.0,0.0
1479791555.4,286047000.9,N,0.0,0.0
1479791575.2,286047000.3,N,0.0,0.0
1479791595.0,286047001.2,N,0.0,0.0
1479791595.9,286047001.2,N,0.0,0.0
1479791615.8,286047001.1,N,0.0,0.0
1479791635.6,286046998.7,N,0.0,0.0
1479791655.4,286047001.0,N,0.0,0.0
1479791675.3,286047000.8,N,0.0,0.0
1479791695.1,286047000.8,N,0.0,0.0
1479791715.9,286047001.2,N,0.0,0.0
1479791735.7,286046998.2,N,0.0,0.0
1479791755.5,286046999.4,N,0.0,0.0
1479791775.4,286046999.5,N,0.0,0.0
1479791795.2,286046999.1,N,0.0,0.0
1479791815.0,286046999.6,N,0.0,0.0
1479791816.0,286046999.6,N,0.0,0.0
1479791835.8,286046997.9,N,0.0,0.0
1479791855.6,286046997.6,N,0.0,0.0
1479791875.5,286046997.4,N,0.0,0.0
1479791895.3,286046997.3,N,0.0,0.0
1479791915.1,286046997.6,N,0.0,0.0
1479791935.9,286046995.2,N,0.0,0.0
1479791955.7,286046995.8,N,0.0,0.0
1479791975.6,286046995.2,N,0.0,0.0
1479791995.4,286046996.4,N,0.0,0.0
1479792015.2,286046993.3,N,0.0,0.0
1479792035.1,286046993.4,N,0.0,0.0
1479792036.0,286046993.4,N,0.0,0.0
1479792055.8,286046995.9,N,0.0,0.0
1479792075.6,286046993.9,N,0.0,0.0
1479792095.5,286046994.1,N,0.0,0.0
1479792115.3,286046994.4,N,0.0,0.0
1479792135.2,286046994.0,N,0.0,0.0
1479792155.9,286046991.7,N,0.0,0.0
1479792175.7,286046994.8,N,0.0,0.0
1479792195.6,286046992.6,N,0.0,0.0
1479792215.4,286046992.2,N,0.0,0.0
1479792235.3,286046990.1,N,0.0,0.0
1479792255.1,286046990.7,N,0.0,0.0
1479792256.0,286046990.7,N,0.0,0.0
1479792275.8,286046991.2,N,0.0,0.0
1479792295.7,286046990.4,N,0.0,0.0
1479792315.5,286046991.2,N,0.0,0.0
1479792335.3,286046991.6,N,0.0,0.0
1479792355.2,286046988.6,N,0.0,0.0
1479792375.0,286046991.5,N,0.0,0.0
1479792375.9,286046991.5,N,0.0,0.0
1479792395.8,286046988.8,N,0.0,0.0
1479792415.6,286046989.4,N,0.0,0.0
1479792435.4,286046989.1,N,0.0,0.0
1479792455.3,286046988.6,N,0.0,0.0
1479792475.1,286046989.2,N,0.0,0.0
1479792495.9,286046989.6,N,0.0,0.0
1479792515.7,286046987.4,N,0.0,0.0
1479792535.5,286046986.9,N,0.0,0.0
1479792555.4,286046987.5,N,0.0,0.0
1479792575.2,286046987.5,N,0.0,0.0
1479792595.0,286046988.2,N,0.0,0.0
1479792595.9,286046988.2,N,0.0,0.0
1479792615.8,286046987.6,N,0.0,0.0
1479792635.6,286046985.7,N,0.0,0.0
1479792655.5,286046986.0,N,0.0,0.0
1479792675.3,286046986.5,N,0.0,0.0
1479792695.1,286046985.7,N,0.0,0.0
1479792715.9,286046986.0,N,0.0,0.0
1479792735.7,286046986.1,N,0.0,0.0
1479792755.5,286046986.7,N,0.0,0.0
1479792775.4,286046986.8,N,0.0,0.0
1479792795.2,286046984.9,N,0.0,0.0
1479792815.1,286046985.0,N,0.0,0.0
1479792816.0,286046985.0,N,0.0,0.0
1479792835.8,286046984.8,N,0.0,0.0
1479792855.6,286046984.2,N,0.0,0.0
1479792875.5,286046984.5,N,0.0,0.0
1479792895.3,286046982.1,N,0.0,0.0
1479792915.2,286046982.4,N,0.0,0.0
1479792935.9,286046982.2,N,0.0,0.0
1479792955.7,286046982.3,N,0.0,0.0
1479792975.6,286046982.8,N,0.0,0.0
1479792995.4,286046983.2,N,0.0,0.0
1479793015.2,286046982.2,N,0.0,0.0
1479793035.1,286046982.7,N,0.0,0.0
1479793036.0,286046982.7,N,0.0,0.0
1479793055.8,286046983.2,N,0.0,0.0
1479793075.7,286046980.6,N,0.0,0.0
1479793095.5,286046983.0,N,0.0,0.0
1479793115.3,286046980.7,N,0.0,0.0
1479793135.2,286046980.6,N,0.0,0.0
1479793155.0,286046980.5,N,0.0,0.0
1479793155.9,286046980.5,N,0.0,0.0
1479793175.8,286046980.6,N,0.0,0.0
1479793195.6,286046981.8,N,0.0,0.0
1479793215.4,286046981.2,N,0.0,0.0
1479793235.3,286046982.0,N,0.0,0.0
1479793255.1,286046981.1,N,0.0,0.0
1479793275.8,286046981.6,N,0.0,0.0
1479793295.7,286046979.0,N,0.0,0.0
1479793315.5,286046979.5,N,0.0,0.0
1479793335.4,286046979.7,N,0.0,0.0
1479793355.2,286046977.8,N,0.0,0.0
1479793375.0,286046978.0,N,0.0,0.0
1479793375.9,286046978.0,N,0.0,0.0
1479793395.8,286046978.2,N,0.0,0.0
1479793415.6,286046977.6,N,0.0,0.0
1479793435.5,286046978.3,N,0.0,0.0
1479793455.3,286046976.1,N,0.0,0.0
1479793475.1,286046978.7,N,0.0,0.0
1479793495.9,286046977.5,N,0.0,0.0
1479793515.7,286046978.3,N,0.0,0.0
1479793535.5,286046978.2,N,0.0,0.0
1479793555.4,286046978.1,N,0.0,0.0
1479793575.2,286046978.1,N,0.0,0.0
1479793595.1,286046976.0,N,0.0,0.0
1479793596.0,286046976.0,N,0.0,0.0
1479793615.8,286046977.0,N,0.0,0.0
1479793635.6,286046974.1,N,0.0,0.0
1479793655.5,286046974.1,N,0.0,0.0
1479793675.3,286046974.2,N,0.0,0.0
1479793695.1,286046977.1,N,0.0,0.0
1479793715.9,286046974.5,N,0.0,0.0
1479793735.7,286046976.8,N,0.0,0.0
1479793755.6,286046974.1,N,0.0,0.0
1479793775.4,286046974.2,N,0.0,0.0
1479793795.2,286046974.7,N,0.0,0.0
1479793815.1,286046974.2,N,0.0,0.0
1479793816.0,286046974.2,N,0.0,0.0
1479793835.8,286046974.7,N,0.0,0.0
1479793855.7,286046974.7,N,0.0,0.0
1479793875.5,286046975.3,N,0.0,0.0
1479793895.3,286046974.9,N,0.0,0.0
1479793915.2,286046975.2,N,0.0,0.0
1479793935.9,286046975.1,N,0.0,0.0
1479793955.7,286046975.0,N,0.0,0.0
1479793975.6,286046972.5,N,0.0,0.0
1479793995.4,286046973.7,N,0.0,0.0
1479794015.3,286046973.6,N,0.0,0.0
1479794035.1,286046970.9,N,0.0,0.0
1479794036.0,286046970.9,N,0.0,0.0
1479794055.8,286046973.9,N,0.0,0.0
1479794075.7,286046971.4,N,0.0,0.0
1479794095.5,286046972.3,N,0.0,0.0
1479794115.3,286046969.8,N,0.0,0.0
1479794135.2,286046972.1,N,0.0,0.0
1479794155.0,286046972.2,N,0.0,0.0
1479794155.9,286046972.2,N,0.0,0.0
1479794175.8,286046969.3,N,0.0,0.0
1479794195.6,286046969.9,N,0.0,0.0
1479794215.4,286046969.5,N,0.0,0.0
1479794235.3,286046970.4,N,0.0,0.0
1479794255.1,286046970.6,N,0.0,0.0
1479794275.9,286046970.8,N,0.0,0.0
1479794295.7,286046970.7,N,0.0,0.0
1479794315.5,286046967.9,N,0.0,0.0
1479794335.4,286046969.1,N,0.0,0.0
1479794355.2,286046966.8,N,0.0,0.0
1479794375.0,286046969.1,N,0.0,0.0
1479794375.9,286046969.1,N,0.0,0.0
1479794395.8,286046966.1,N,0.0,0.0
